When you browse on this site, cookies collect data to enhance your experience and personalize the content and advertising you see.
Visit our Privacy Policy to learn more. By continuing to use the site, you agree to this use of cookies and data.
  • In United Kingdom
  • List of Countries
  • For 7 days
  • Water Temperature
  • Satellite Maps
  • Weather Map
  • Weather Widgets
  • user-avatar
    Login

    Hourly Weather Sassandra

    Today, 21 January, Monday

    Time Temperature Precipitation Wind Pressure Humidity
    00:00 +29°C° 0 mm 2 mps 758 mmHg 87%
    01:00 +28°C° 0.3 mm 2 mps 758 mmHg 88%
    02:00 +28°C° 0.3 mm 2 mps 758 mmHg 88%
    03:00 +28°C° 0.3 mm 2 mps 757 mmHg 88%
    04:00 +28°C° 0.6 mm 2 mps 758 mmHg 88%
    05:00 +28°C° 0.6 mm 2 mps 758 mmHg 87%
    06:00 +28°C° 0 mm 2 mps 758 mmHg 88%
    07:00 +29°C° 0.3 mm 2 mps 758 mmHg 82%
    08:00 +30°C° 0.3 mm 2 mps 758 mmHg 76%
    09:00 +33°C° 0.3 mm 3 mps 759 mmHg 70%
    10:00 +33°C° 0.1 mm 3 mps 758 mmHg 67%
    11:00 +34°C° 0.1 mm 3 mps 758 mmHg 63%
    12:00 +35°C° 0 mm 3 mps 758 mmHg 63%
    13:00 +34°C° 1.7 mm 3 mps 757 mmHg 66%
    14:00 +33°C° 1.7 mm 3 mps 757 mmHg 69%
    15:00 +33°C° 1.7 mm 3 mps 757 mmHg 72%
    16:00 +31°C° 1.9 mm 3 mps 757 mmHg 75%
    17:00 +30°C° 1.9 mm 2 mps 757 mmHg 78%
    18:00 +29°C° 1.9 mm 2 mps 757 mmHg 81%
    19:00 +29°C° 0.1 mm 2 mps 757 mmHg 82%
    20:00 +29°C° 0.1 mm 2 mps 758 mmHg 83%
    21:00 +29°C° 0.1 mm 2 mps 758 mmHg 84%
    22:00 +29°C° 0.3 mm 3 mps 758 mmHg 85%
    23:00 +29°C° 0.3 mm 3 mps 758 mmHg 86%

    Tomorrow, 22 January, Tuesday

    Time Temperature Precipitation Wind Pressure Humidity
    00:00 +28°C° 0.3 mm 3 mps 758 mmHg 87%
    01:00 +28°C° 0.2 mm 3 mps 757 mmHg 88%
    02:00 +28°C° 0.2 mm 2 mps 757 mmHg 89%
    03:00 +28°C° 0.2 mm 2 mps 757 mmHg 90%
    04:00 +28°C° 0.1 mm 2 mps 757 mmHg 90%
    05:00 +28°C° 0.1 mm 2 mps 757 mmHg 91%
    06:00 +28°C° 0.1 mm 2 mps 757 mmHg 91%
    07:00 +29°C° 0 mm 2 mps 758 mmHg 85%
    08:00 +30°C° 0 mm 2 mps 758 mmHg 79%
    09:00 +32°C° 0 mm 2 mps 758 mmHg 73%
    10:00 +33°C° 0.2 mm 3 mps 758 mmHg 70%
    11:00 +34°C° 0.2 mm 3 mps 758 mmHg 67%
    12:00 +35°C° 0.2 mm 3 mps 758 mmHg 64%
    13:00 +34°C° 2.5 mm 3 mps 757 mmHg 67%
    14:00 +33°C° 2.5 mm 3 mps 756 mmHg 71%
    15:00 +31°C° 2.5 mm 3 mps 756 mmHg 74%
    16:00 +31°C° 1.4 mm 3 mps 756 mmHg 77%
    17:00 +30°C° 1.4 mm 3 mps 756 mmHg 80%
    18:00 +29°C° 1.4 mm 3 mps 757 mmHg 84%
    19:00 +29°C° 0 mm 3 mps 757 mmHg 84%
    20:00 +29°C° 0 mm 2 mps 758 mmHg 85%
    21:00 +29°C° 0 mm 2 mps 758 mmHg 86%
    22:00 +29°C° 0 mm 3 mps 758 mmHg 87%
    23:00 +28°C° 0 mm 3 mps 758 mmHg 88%

    Day after tomorrow, 23 January, Wednesday

    Time Temperature Precipitation Wind Pressure Humidity
    00:00 +28°C° 0 mm 3 mps 758 mmHg 89%
    01:00 +28°C° 0 mm 3 mps 757 mmHg 90%
    02:00 +28°C° 0 mm 3 mps 757 mmHg 91%
    03:00 +28°C° 0 mm 2 mps 756 mmHg 92%
    04:00 +28°C° 0 mm 2 mps 756 mmHg 92%
    05:00 +28°C° 0 mm 2 mps 757 mmHg 92%
    06:00 +28°C° 0 mm 2 mps 757 mmHg 91%
    07:00 +29°C° 0 mm 2 mps 757 mmHg 86%
    08:00 +30°C° 0 mm 3 mps 758 mmHg 80%
    09:00 +31°C° 0 mm 3 mps 758 mmHg 74%
    10:00 +33°C° 0 mm 3 mps 758 mmHg 71%
    11:00 +34°C° 0 mm 3 mps 758 mmHg 67%
    12:00 +34°C° 0 mm 3 mps 757 mmHg 64%
    13:00 +34°C° 0.4 mm 3 mps 757 mmHg 66%
    14:00 +34°C° 0.4 mm 3 mps 756 mmHg 68%
    15:00 +33°C° 0.4 mm 4 mps 755 mmHg 70%
    16:00 +31°C° 0.5 mm 3 mps 755 mmHg 74%
    17:00 +30°C° 0.5 mm 3 mps 756 mmHg 78%
    18:00 +30°C° 0.5 mm 2 mps 756 mmHg 82%
    19:00 +29°C° 0.1 mm 2 mps 757 mmHg 84%
    20:00 +29°C° 0.1 mm 2 mps 757 mmHg 85%
    21:00 +29°C° 0.1 mm 2 mps 758 mmHg 86%
    22:00 +29°C° 0 mm 3 mps 757 mmHg 87%
    23:00 +29°C° 0 mm 3 mps 757 mmHg 87%

    24 January, Thursday

    Time Temperature Precipitation Wind Pressure Humidity
    00:00 +29°C° 0 mm 3 mps 757 mmHg 88%
    01:00 +28°C° 0 mm 3 mps 756 mmHg 88%
    02:00 +28°C° 0 mm 3 mps 756 mmHg 89%
    03:00 +28°C° 0 mm 3 mps 755 mmHg 90%
    04:00 +28°C° 0 mm 2 mps 756 mmHg 90%
    05:00 +28°C° 0 mm 2 mps 756 mmHg 90%
    06:00 +28°C° 0 mm 2 mps 756 mmHg 91%
    07:00 +29°C° 0 mm 2 mps 757 mmHg 84%
    08:00 +30°C° 0 mm 3 mps 757 mmHg 78%
    09:00 +33°C° 0 mm 3 mps 758 mmHg 72%
    10:00 +33°C° 0 mm 3 mps 757 mmHg 68%
    11:00 +34°C° 0 mm 4 mps 757 mmHg 65%
    12:00 +35°C° 0 mm 4 mps 756 mmHg 62%
    13:00 +34°C° 0.6 mm 4 mps 756 mmHg 64%
    14:00 +34°C° 0.6 mm 4 mps 755 mmHg 66%
    15:00 +33°C° 0.6 mm 4 mps 754 mmHg 68%
    16:00 +31°C° 1.2 mm 3 mps 755 mmHg 73%
    17:00 +30°C° 1.2 mm 3 mps 755 mmHg 78%
    18:00 +29°C° 1.2 mm 2 mps 756 mmHg 83%
    19:00 +29°C° 0.9 mm 2 mps 756 mmHg 83%
    20:00 +29°C° 0.9 mm 2 mps 757 mmHg 84%
    21:00 +29°C° 0.9 mm 2 mps 758 mmHg 85%
    22:00 +28°C° 0.1 mm 2 mps 757 mmHg 86%
    23:00 +28°C° 0.1 mm 2 mps 757 mmHg 86%

    25 January, Friday

    Time Temperature Precipitation Wind Pressure Humidity
    00:00 +28°C° 0.1 mm 2 mps 757 mmHg 86%
    01:00 +28°C° 0.1 mm 2 mps 756 mmHg 87%
    02:00 +28°C° 0.1 mm 2 mps 756 mmHg 88%
    03:00 +28°C° 0.1 mm 2 mps 756 mmHg 88%
    04:00 +28°C° 0 mm 2 mps 756 mmHg 88%
    05:00 +28°C° 0 mm 2 mps 756 mmHg 88%
    06:00 +28°C° 0 mm 2 mps 757 mmHg 88%
    07:00 +29°C° 0.2 mm 2 mps 757 mmHg 81%
    08:00 +30°C° 0.2 mm 2 mps 758 mmHg 75%
    09:00 +32°C° 0.2 mm 2 mps 758 mmHg 68%
    10:00 +32°C° 0.5 mm 2 mps 758 mmHg 65%
    11:00 +34°C° 0.5 mm 2 mps 757 mmHg 62%
    12:00 +35°C° 0.5 mm 3 mps 757 mmHg 59%
    13:00 +34°C° 0.9 mm 3 mps 756 mmHg 62%
    14:00 +34°C° 0.9 mm 3 mps 755 mmHg 65%
    15:00 +33°C° 0.9 mm 3 mps 755 mmHg 68%
    16:00 +31°C° 0.1 mm 3 mps 755 mmHg 72%
    17:00 +31°C° 0.1 mm 3 mps 755 mmHg 76%
    18:00 +30°C° 0.1 mm 3 mps 756 mmHg 80%
    19:00 +29°C° 0 mm 3 mps 756 mmHg 81%
    20:00 +29°C° 0 mm 3 mps 757 mmHg 83%
    21:00 +29°C° 0 mm 3 mps 757 mmHg 84%
    22:00 +29°C° 0 mm 3 mps 757 mmHg 85%
    23:00 +29°C° 0 mm 3 mps 757 mmHg 86%

    26 January, Saturday

    Time Temperature Precipitation Wind Pressure Humidity
    00:00 +29°C° 0 mm 3 mps 757 mmHg 86%
    01:00 +28°C° 0 mm 3 mps 756 mmHg 87%
    02:00 +28°C° 0 mm 3 mps 756 mmHg 88%
    03:00 +28°C° 0 mm 2 mps 755 mmHg 89%
    04:00 +28°C° 0 mm 2 mps 756 mmHg 89%
    05:00 +28°C° 0 mm 2 mps 756 mmHg 88%
    06:00 +28°C° 0 mm 2 mps 757 mmHg 88%
    07:00 +29°C° 0 mm 2 mps 757 mmHg 83%
    08:00 +30°C° 0 mm 3 mps 758 mmHg 78%
    09:00 +31°C° 0 mm 3 mps 758 mmHg 73%
    10:00 +33°C° 0.8 mm 3 mps 758 mmHg 71%
    11:00 +33°C° 0.8 mm 3 mps 758 mmHg 68%
    12:00 +34°C° 0.8 mm 3 mps 757 mmHg 66%
    13:00 +34°C° 0.7 mm 4 mps 757 mmHg 66%
    14:00 +34°C° 0.7 mm 4 mps 756 mmHg 67%
    15:00 +33°C° 0.7 mm 4 mps 756 mmHg 68%
    16:00 +32°C° 0 mm 4 mps 756 mmHg 72%
    17:00 +30°C° 0 mm 4 mps 756 mmHg 76%
    18:00 +30°C° 0 mm 4 mps 756 mmHg 80%
    19:00 +29°C° 0 mm 3 mps 757 mmHg 81%
    20:00 +29°C° 0 mm 3 mps 757 mmHg 83%
    21:00 +29°C° 0 mm 3 mps 758 mmHg 85%
    22:00 +29°C° 0 mm 3 mps 758 mmHg 85%
    23:00 +29°C° 0 mm 3 mps 758 mmHg 86%
    Show more